KE5BM-13 Milton FL US current weather conditions

sailwx.info

Wind from 327

Air temperature 0.6° C
Dewpoint -0.1° C

Last reported at 2020-Jan-25 13:06 UTC.
Time now 2020-Jan-25 13:37 UTC

Location: N 30°38' W 087°04'.
View on Google Maps.

See reports from other nearby stations

  
Tides and Currents Weather Stations Pressure Air Temp Water Temp Dewpoint Dewpoint Depression Visibility Wind Speed Wind Dir Waves Ship Positions
date/time (UTC)wind fromknots sea level pressurealtimeterstation pressurevisibilityair tempwater tempwave heightnotes
2020-Jan-25 13:06 327 0.6
2020-Jan-25 12:59 327 0.6
2020-Jan-25 12:54 327 0.6
2020-Jan-25 12:46 327 0.6
2020-Jan-25 12:41 327 0.6
2020-Jan-25 12:36 327 0.6
2020-Jan-25 12:34 327 1.1
2020-Jan-25 12:26 327 1.1
2020-Jan-25 12:21 326 1.1
2020-Jan-25 12:19 327 1.1
2020-Jan-25 12:06 327 1.1
2020-Jan-25 12:03 327 1.7
2020-Jan-25 11:56 327 1.7
2020-Jan-25 11:46 327 1.7
2020-Jan-25 11:41 327 1.7
2020-Jan-25 11:36 327 1.7
2020-Jan-25 11:33 327 2.2
2020-Jan-25 11:26 327 1.7
2020-Jan-25 11:16 327 2.2
2020-Jan-25 11:11 327 2.2
2020-Jan-25 11:08 327 2.2
2020-Jan-25 11:03 327 2.8
2020-Jan-25 10:55 327 2.8
2020-Jan-25 10:50 327 2.8
2020-Jan-25 10:45 327 2.8
2020-Jan-25 10:43 327 3.3
2020-Jan-25 10:35 327 3.3
2020-Jan-25 10:25 327 3.3
2020-Jan-25 10:20 327 3.3
2020-Jan-25 10:18 327 3.3
2020-Jan-25 10:10 314 3.9
2020-Jan-25 10:00 308 3.9
2020-Jan-25 09:58 341 3.9
2020-Jan-25 09:53 317 3.9
2020-Jan-25 09:40 317 3.9
2020-Jan-25 09:38 317 4.4
2020-Jan-25 09:33 348 4.4
2020-Jan-25 09:23 345 4.4
2020-Jan-25 09:15 342 4.4
2020-Jan-25 09:13 324 4.4
2020-Jan-25 09:05 336 4.4
2020-Jan-25 09:00 331 4.4
2020-Jan-25 08:55 327 4.4
2020-Jan-25 08:45 293 4.4
2020-Jan-25 08:37 293 4.4
2020-Jan-25 08:30 293 5.0
2020-Jan-25 08:25 293 5.0
2020-Jan-25 08:20 293 5.0
2020-Jan-25 08:10 293 5.6
2020-Jan-25 07:55 315 6.1
2020-Jan-25 07:50 301 6.1
2020-Jan-25 07:45 267 0 gusting 5 6.1
2020-Jan-25 07:40 324 0 gusting 5 6.1
2020-Jan-25 07:32 306 0 gusting 4 6.7
2020-Jan-25 07:22 325 0 gusting 4 6.7
2020-Jan-25 07:14 275 0 gusting 4 6.7
2020-Jan-25 07:09 283 0 gusting 3 6.7
2020-Jan-25 06:59 319 0 gusting 3 6.7
2020-Jan-25 06:54 310 0 gusting 3 6.7
2020-Jan-25 06:49 316 0 gusting 2 6.7
2020-Jan-25 06:44 264 0 gusting 3 6.7
2020-Jan-25 06:39 269 0 gusting 4 7.2
2020-Jan-25 06:34 293 0 gusting 3 7.2
2020-Jan-25 06:24 292 0 gusting 5 7.2
2020-Jan-25 06:19 289 0 gusting 5 7.8
2020-Jan-25 06:04 322 1 gusting 6 7.8
2020-Jan-25 05:59 296 1 gusting 6 7.8
2020-Jan-25 05:54 310 1 gusting 6 8.3
2020-Jan-25 05:49 300 1 gusting 5 8.3
2020-Jan-25 05:44 315 1 gusting 5 8.3
2020-Jan-25 05:39 326 0 gusting 5 8.3
2020-Jan-25 05:34 304 0 gusting 2 8.3
2020-Jan-25 05:24 279 0 gusting 2 8.3
2020-Jan-25 05:19 282 1 gusting 3 8.3
2020-Jan-25 05:09 279 1 gusting 3 8.3
2020-Jan-25 05:04 273 1 gusting 3 8.3
2020-Jan-25 04:59 277 1 gusting 3 7.8
2020-Jan-25 04:52 264 0 gusting 1 7.8
2020-Jan-25 04:44 263 7.2
2020-Jan-25 04:39 265 7.2
2020-Jan-25 04:34 262 7.2
2020-Jan-25 04:24 261 7.2
2020-Jan-25 04:19 262 7.2
2020-Jan-25 04:09 199 7.2
2020-Jan-25 04:01 199 7.2
2020-Jan-25 03:54 199 7.2
2020-Jan-25 03:49 199 7.8
2020-Jan-25 03:36 199 7.8
2020-Jan-25 03:29 199 7.8
2020-Jan-25 03:24 199 7.8
2020-Jan-25 03:14 199 8.3
2020-Jan-25 03:04 199 8.3
2020-Jan-25 02:54 199 8.3
2020-Jan-25 02:49 199 8.3
2020-Jan-25 02:44 199 8.3
2020-Jan-25 02:39 199 8.3
2020-Jan-25 02:34 199 8.3
2020-Jan-25 02:29 199 8.3
2020-Jan-25 02:19 199 8.9
2020-Jan-25 02:14 199 8.9
2020-Jan-25 02:09 209 8.9
2020-Jan-25 02:04 209 8.9
2020-Jan-25 01:51 209 8.9
2020-Jan-25 01:48 209 8.9
2020-Jan-25 01:38 209 8.9
2020-Jan-25 01:33 209 8.9
2020-Jan-25 01:28 209 8.9
2020-Jan-25 01:23 209 8.9
2020-Jan-25 01:18 207 8.9
2020-Jan-25 01:13 207 9.4
2020-Jan-25 01:03 207 9.4
2020-Jan-25 00:58 207 9.4
2020-Jan-25 00:55 207 9.4
2020-Jan-25 00:43 207 10.0
2020-Jan-25 00:33 207 10.0
2020-Jan-25 00:28 226 10.0
2020-Jan-25 00:13 226 10.6
2020-Jan-25 00:08 226 10.6
2020-Jan-25 00:03 226 10.6
2020-Jan-24 23:55 226 11.1
2020-Jan-24 23:48 226 11.7
2020-Jan-24 23:38 227 12.2
2020-Jan-24 23:33 226 12.8
2020-Jan-24 23:28 226 13.3
2020-Jan-24 23:18 226 14.4
2020-Jan-24 23:13 226 14.4
2020-Jan-24 23:05 226 15.6
2020-Jan-24 23:00 254 15.6
2020-Jan-24 22:53 254 16.1
2020-Jan-24 22:43 262 0 gusting 2 16.7
2020-Jan-24 22:38 259 17.2
2020-Jan-24 22:28 256 0 gusting 3 17.2
2020-Jan-24 22:24 277 0 gusting 3 17.2
2020-Jan-24 22:12 273 0 gusting 3 17.2
2020-Jan-24 22:05 271 2 gusting 5 17.2
2020-Jan-24 21:58 272 2 gusting 5 17.2
2020-Jan-24 21:50 255 1 gusting 5 17.2
2020-Jan-24 21:42 275 2 gusting 6 17.2
2020-Jan-24 21:37 271 1 gusting 6 17.2
2020-Jan-24 21:32 283 1 gusting 5 17.8
2020-Jan-24 21:27 251 1 gusting 5 17.8
2020-Jan-24 21:22 314 1 gusting 4 17.8
2020-Jan-24 21:17 270 1 gusting 4 17.8
2020-Jan-24 21:12 276 2 gusting 5 17.2
2020-Jan-24 21:07 322 1 gusting 6 17.2
2020-Jan-24 21:02 267 1 gusting 7 17.8
2020-Jan-24 20:55 274 2 gusting 5 17.2
2020-Jan-24 20:52 339 2 gusting 5 17.8
2020-Jan-24 20:47 279 2 gusting 9 17.2
2020-Jan-24 20:45 331 1 gusting 5 17.8
2020-Jan-24 20:37 267 1 gusting 5 17.2
2020-Jan-24 20:27 260 2 gusting 6 17.2
2020-Jan-24 20:17 238 3 gusting 7 17.2
2020-Jan-24 20:12 254 3 gusting 7 17.2
2020-Jan-24 20:07 262 3 gusting 8 16.7
2020-Jan-24 20:05 290 3 gusting 8 16.7
2020-Jan-24 19:58 263 3 gusting 10 17.2
2020-Jan-24 19:44 282 3 gusting 7 17.2
2020-Jan-24 19:37 314 3 gusting 12 17.2
2020-Jan-24 19:32 279 3 gusting 12 17.2
2020-Jan-24 19:27 320 3 gusting 9 17.2
2020-Jan-24 19:24 315 2 gusting 9 17.2
2020-Jan-24 19:17 319 2 gusting 9 17.2
2020-Jan-24 19:12 280 2 gusting 9 16.7
2020-Jan-24 19:09 273 2 gusting 7 16.7
2020-Jan-24 19:02 255 3 gusting 7 16.7
2020-Jan-24 18:57 265 3 gusting 7 16.7
2020-Jan-24 18:54 315 4 gusting 10 16.7
2020-Jan-24 18:42 279 5 gusting 13 16.1
2020-Jan-24 18:37 266 6 gusting 13 16.1
2020-Jan-24 18:32 327 5 gusting 13 16.1
2020-Jan-24 18:29 287 5 gusting 13 16.1
2020-Jan-24 18:22 264 4 gusting 10 16.1
2020-Jan-24 18:19 266 2 gusting 8 16.1
2020-Jan-24 18:14 254 2 gusting 6 16.1
2020-Jan-24 18:09 272 3 gusting 7 15.6
2020-Jan-24 18:02 264 2 gusting 7 15.6
2020-Jan-24 17:57 264 2 gusting 6 15.6
2020-Jan-24 17:54 205 1 gusting 6 15.0
2020-Jan-24 17:47 225 2 gusting 6 15.0
2020-Jan-24 17:42 271 1 gusting 5 14.4
2020-Jan-24 17:38 283 1 gusting 5 13.9
2020-Jan-24 17:27 292 1 gusting 5 13.9
2020-Jan-24 17:22 318 1 gusting 5 13.3
2020-Jan-24 17:17 265 2 gusting 6 13.3
2020-Jan-24 17:11 256 2 gusting 6 13.3
2020-Jan-24 17:09 274 3 gusting 12 13.3
2020-Jan-24 17:04 266 5 gusting 12 13.3
2020-Jan-24 16:51 294 2 gusting 6 13.9
2020-Jan-24 16:46 296 2 gusting 6 13.9
2020-Jan-24 16:41 276 2 gusting 6 13.9
2020-Jan-24 16:36 267 2 gusting 6 13.9
2020-Jan-24 16:34 279 1 gusting 4 14.4
2020-Jan-24 16:24 262 1 gusting 4 13.9
2020-Jan-24 16:19 238 1 gusting 5 13.9
2020-Jan-24 16:06 300 2 gusting 6 13.3
2020-Jan-24 15:56 276 2 gusting 5 13.3
2020-Jan-24 15:51 275 2 gusting 6 13.3
2020-Jan-24 15:46 291 2 gusting 6 13.3
2020-Jan-24 15:41 274 2 gusting 5 13.3
2020-Jan-24 15:36 270 1 gusting 5 13.3
2020-Jan-24 15:31 272 1 gusting 5 13.3
2020-Jan-24 15:26 279 0 gusting 3 12.8
2020-Jan-24 15:16 272 0 gusting 5 12.8
2020-Jan-24 15:13 269 1 gusting 8 12.8
2020-Jan-24 15:08 269 2 gusting 8 12.8
2020-Jan-24 14:56 263 0 gusting 5 12.8
2020-Jan-24 14:51 264 0 gusting 5 12.8
2020-Jan-24 14:46 260 1 gusting 5 12.8
2020-Jan-24 14:41 318 1 gusting 4 12.8
2020-Jan-24 14:36 265 1 gusting 4 12.2
2020-Jan-24 14:26 263 0 gusting 4 12.8
2020-Jan-24 14:21 208 1 gusting 5 12.8
2020-Jan-24 14:16 274 1 gusting 6 12.8
2020-Jan-24 14:11 270 0 gusting 6 12.8
2020-Jan-24 14:08 317 0 gusting 5 12.8
2020-Jan-24 13:56 298 1 gusting 6 12.2
2020-Jan-24 13:51 265 1 gusting 6 12.2
2020-Jan-24 13:46 282 1 gusting 6 12.2
2020-Jan-24 13:41 269 1 gusting 6 12.2
2020-Jan-24 13:36 293 1 gusting 6 12.2
2020-Jan-24 13:33 284 0 gusting 6 12.2
2020-Jan-24 13:26 272 1 gusting 6 12.2
2020-Jan-24 13:23 313 1 gusting 6 12.2
2020-Jan-24 13:18 318 1 gusting 8 12.2
2020-Jan-24 13:12 310 0 gusting 5 12.2
2020-Jan-24 13:01 274 0 gusting 5 12.2
2020-Jan-24 12:58 275 0 gusting 2 12.2
2020-Jan-24 12:48 272 0 gusting 4 12.8
2020-Jan-24 12:38 267 0 gusting 3 12.8
2020-Jan-24 12:33 248 1 gusting 3 12.8
2020-Jan-24 12:26 272 1 gusting 4 12.8
2020-Jan-24 12:21 260 1 gusting 4 12.8
2020-Jan-24 12:16 258 1 gusting 4 12.8
2020-Jan-24 12:11 269 1 gusting 3 12.8
2020-Jan-24 12:01 263 0 gusting 3 12.8
2020-Jan-24 11:56 267 0 gusting 2 12.2
2020-Jan-24 11:51 271 11.7
2020-Jan-24 11:46 265 11.7
2020-Jan-24 11:41 265 11.1
2020-Jan-24 11:38 265 11.1
2020-Jan-24 11:30 265 11.1
2020-Jan-24 11:25 265 10.6
2020-Jan-24 11:20 265 10.6
2020-Jan-24 11:18 265 10.6
2020-Jan-24 11:13 103 10.6
2020-Jan-24 11:00 104 10.6
2020-Jan-24 10:58 103 11.1
2020-Jan-24 10:45 103 11.1
2020-Jan-24 10:40 103 11.1
2020-Jan-24 10:38 104 11.1
2020-Jan-24 10:25 104 11.1
2020-Jan-24 10:20 104 11.1
2020-Jan-24 10:15 104 11.1
2020-Jan-24 10:10 104 11.1
2020-Jan-24 10:05 104 11.1
2020-Jan-24 09:55 104 11.1
2020-Jan-24 09:54 103 11.7
2020-Jan-24 09:48 104 11.7
2020-Jan-24 09:40 104 11.7
2020-Jan-24 09:36 103 11.7
2020-Jan-24 09:30 104 11.7
2020-Jan-24 09:22 103 11.7
2020-Jan-24 09:10 104 11.7
2020-Jan-24 09:07 104 11.7
2020-Jan-24 09:02 104 12.2
2020-Jan-24 08:57 104 12.2
2020-Jan-24 08:45 104 12.2
2020-Jan-24 08:35 103 12.2
2020-Jan-24 08:32 104 12.8
2020-Jan-24 08:27 104 12.8
2020-Jan-24 08:22 103 12.8
2020-Jan-24 08:20 104 12.8
2020-Jan-24 08:07 104 13.3
2020-Jan-24 08:02 104 13.3
2020-Jan-24 07:55 104 13.3
2020-Jan-24 07:50 104 13.9
2020-Jan-24 07:44 104 13.9
2020-Jan-24 07:39 104 13.9
2020-Jan-24 07:29 104 13.9
2020-Jan-24 07:22 096 0 gusting 1 13.9
2020-Jan-24 07:14 127 14.4
2020-Jan-24 07:07 143 1 gusting 7 13.9
2020-Jan-24 07:02 026 13.3
2020-Jan-24 06:59 202 0 gusting 6 13.3
2020-Jan-24 06:52 025 13.3
2020-Jan-24 06:44 006 13.3
2020-Jan-24 06:39 007 13.3
2020-Jan-24 06:29 002 12.8
2020-Jan-24 06:24 002 12.8
2020-Jan-24 06:14 002 12.8
2020-Jan-24 06:09 002 12.8
2020-Jan-24 06:04 002 12.8
2020-Jan-24 05:59 002 12.8
2020-Jan-24 05:54 002 12.8
2020-Jan-24 05:49 002 12.8
2020-Jan-24 05:44 002 12.8
2020-Jan-24 05:34 002 12.8
2020-Jan-24 05:29 002 12.8
2020-Jan-24 05:19 002 12.8
2020-Jan-24 05:14 002 12.8
2020-Jan-24 05:09 002 12.8
2020-Jan-24 04:59 002 12.8
2020-Jan-24 04:51 040 13.3
2020-Jan-24 04:46 022 13.3
2020-Jan-24 04:41 030 13.3
2020-Jan-24 04:36 030 13.3
2020-Jan-24 04:31 030 12.8
2020-Jan-24 04:29 030 12.8
2020-Jan-24 04:14 275 12.8
2020-Jan-24 04:04 258 13.3
2020-Jan-24 03:59 258 13.3
2020-Jan-24 03:54 258 13.3
2020-Jan-24 03:49 257 13.3
2020-Jan-24 03:41 275 13.3
2020-Jan-24 03:34 352 13.3
2020-Jan-24 03:24 028 13.3
2020-Jan-24 03:19 069 13.3
2020-Jan-24 03:14 109 1 gusting 4 13.3
2020-Jan-24 03:09 101 2 gusting 4 12.8
2020-Jan-24 03:04 096 1 gusting 4 12.8
2020-Jan-24 02:54 188 0 gusting 2 12.8
2020-Jan-24 02:49 005 0 gusting 2 12.8
2020-Jan-24 02:44 054 12.8
2020-Jan-24 02:39 238 12.8
2020-Jan-24 02:23 008 12.8
2020-Jan-24 02:18 023 12.2
2020-Jan-24 02:13 013 12.2
2020-Jan-24 02:08 008 12.2
2020-Jan-24 02:03 021 12.2
2020-Jan-24 01:58 012 12.2
2020-Jan-24 01:53 331 12.2
2020-Jan-24 01:49 331 12.2
2020-Jan-24 01:44 319 12.2
2020-Jan-24 01:33 030 12.2
2020-Jan-24 01:28 083 0 gusting 1 12.2
2020-Jan-24 01:23 057 0 gusting 3 12.2
2020-Jan-24 01:18 080 0 gusting 3 12.2
2020-Jan-24 01:13 085 0 gusting 3 12.2
2020-Jan-24 01:02 355 0 gusting 3 11.7
2020-Jan-24 00:48 091 11.7
2020-Jan-24 00:43 075 11.7
2020-Jan-24 00:38 047 11.7
2020-Jan-24 00:28 034 11.7
2020-Jan-24 00:20 094 11.7
2020-Jan-24 00:15 022 11.7
2020-Jan-24 00:10 048 11.7
2020-Jan-24 00:05 065 11.7
2020-Jan-23 23:58 061 0 gusting 4 11.7
2020-Jan-23 23:48 080 1 gusting 4 11.7
2020-Jan-23 23:40 113 11.7
2020-Jan-23 23:35 093 0 gusting 2 11.7
2020-Jan-23 23:28 087 11.7
2020-Jan-23 23:23 030 11.7
2020-Jan-23 23:18 083 0 gusting 3 11.7
2020-Jan-23 23:08 014 1 gusting 4 11.7
2020-Jan-23 23:03 103 0 gusting 4 11.7
2020-Jan-23 22:55 111 0 gusting 3 11.7
2020-Jan-23 22:48 092 0 gusting 4 11.7
2020-Jan-23 22:37 097 0 gusting 4 11.7
2020-Jan-23 22:32 099 0 gusting 4 11.7
2020-Jan-23 22:27 100 0 gusting 3 11.7
2020-Jan-23 22:22 074 0 gusting 3 11.7
2020-Jan-23 22:17 101 0 gusting 2 11.7
2020-Jan-23 22:12 070 0 gusting 3 11.7
2020-Jan-23 21:57 075 1 gusting 3 11.7
2020-Jan-23 21:50 105 1 gusting 6 11.7
2020-Jan-23 21:42 125 1 gusting 5 12.2
2020-Jan-23 21:40 088 1 gusting 5 12.2
2020-Jan-23 21:27 075 1 gusting 2 12.2
2020-Jan-23 21:22 085 0 gusting 1 12.2
2020-Jan-23 21:20 059 12.2
2020-Jan-23 21:07 093 12.2
2020-Jan-23 21:02 126 0 gusting 1 12.2
2020-Jan-23 21:00 098 0 gusting 1 12.2
2020-Jan-23 20:50 111 12.8
2020-Jan-23 20:36 077 12.8
2020-Jan-23 20:35 111 12.8
2020-Jan-23 20:30 129 12.8
2020-Jan-23 20:17 077 0 gusting 2 13.3
2020-Jan-23 20:12 087 1 gusting 5 13.3
2020-Jan-23 20:07 110 2 gusting 5 13.3
2020-Jan-23 20:02 094 2 gusting 4 13.3
2020-Jan-23 19:57 114 2 gusting 4 13.3
2020-Jan-23 19:52 124 2 gusting 6 13.9
2020-Jan-23 19:42 092 2 gusting 6 13.9
2020-Jan-23 19:39 082 2 gusting 6 13.9
2020-Jan-23 19:27 095 1 gusting 6 13.9
2020-Jan-23 19:22 086 1 gusting 4 13.9
2020-Jan-23 19:19 087 1 gusting 5 13.9
2020-Jan-23 19:14 072 1 gusting 5 13.9
2020-Jan-23 19:09 016 0 gusting 5 13.9
2020-Jan-23 18:57 106 2 gusting 6 13.3
2020-Jan-23 18:54 071 1 gusting 6 13.3
2020-Jan-23 18:47 026 2 gusting 6 13.3
2020-Jan-23 18:44 096 2 gusting 6 12.8
2020-Jan-23 18:37 111 1 gusting 6 12.8
2020-Jan-23 18:32 059 4 gusting 8 12.8
2020-Jan-23 18:19 109 4 gusting 8 12.8
2020-Jan-23 18:11 102 4 gusting 8 12.8
2020-Jan-23 18:06 079 4 gusting 9 12.8
2020-Jan-23 18:01 112 4 gusting 9 12.8
2020-Jan-23 17:59 073 4 gusting 7 12.8
2020-Jan-23 17:54 112 3 gusting 7 12.8
2020-Jan-23 17:46 097 3 gusting 6 12.2
2020-Jan-23 17:41 139 3 gusting 6 12.2
2020-Jan-23 17:39 135 3 gusting 6 11.7
2020-Jan-23 17:31 097 5 gusting 9 11.7
2020-Jan-23 17:27 083 5 gusting 9 11.7
2020-Jan-23 17:21 078 3 gusting 8 11.7
2020-Jan-23 17:16 108 3 gusting 7 11.1
2020-Jan-23 17:11 087 3 gusting 8 11.1
2020-Jan-23 17:01 099 4 gusting 8 11.1
2020-Jan-23 16:59 050 2 gusting 8 11.1
2020-Jan-23 16:51 113 2 gusting 6 11.1
2020-Jan-23 16:41 100 2 gusting 6 10.6
2020-Jan-23 16:36 025 2 gusting 6 10.6
2020-Jan-23 16:26 106 1 gusting 6 10.6
2020-Jan-23 16:21 086 2 gusting 6 10.6
2020-Jan-23 16:16 088 2 gusting 6 10.0
2020-Jan-23 16:06 046 1 gusting 6 10.0
2020-Jan-23 16:04 016 2 gusting 6 10.0
2020-Jan-23 15:56 039 2 gusting 6 9.4
2020-Jan-23 15:51 044 2 gusting 7 9.4
2020-Jan-23 15:46 085 2 gusting 7 9.4
2020-Jan-23 15:41 068 2 gusting 6 9.4
2020-Jan-23 15:39 083 1 gusting 6 9.4
2020-Jan-23 15:31 060 2 gusting 6 8.9
2020-Jan-23 15:26 103 2 gusting 7 8.9
2020-Jan-23 15:24 113 1 gusting 7 8.9
2020-Jan-23 15:16 053 1 gusting 4 8.9
2020-Jan-23 15:11 075 0 gusting 5 8.9
2020-Jan-23 15:04 084 0 gusting 3 8.9
2020-Jan-23 14:56 086 0 gusting 5 8.9
2020-Jan-23 14:54 014 0 gusting 6 8.9
2020-Jan-23 14:46 077 1 gusting 6 8.9
2020-Jan-23 14:41 085 1 gusting 5 8.9
2020-Jan-23 14:36 102 2 gusting 6 8.9
2020-Jan-23 14:34 063 2 gusting 6 8.9
2020-Jan-23 14:26 076 1 gusting 5 8.9
2020-Jan-23 14:24 080 1 gusting 5 8.9
2020-Jan-23 14:16 097 1 gusting 3 8.9
2020-Jan-23 14:11 073 0 gusting 6 8.9
2020-Jan-23 14:06 087 0 gusting 6 8.3
2020-Jan-23 14:01 013 0 gusting 4 8.3
2020-Jan-23 13:46 083 0 gusting 4 8.3
2020-Jan-23 13:41 040 0 gusting 4 8.3
2020-Jan-23 13:38 015 1 gusting 4 8.3
2020-Jan-23 13:31 088 0 gusting 4 8.3
2020-Jan-23 13:26 339 0 gusting 4 8.3
2020-Jan-23 13:21 023 0 gusting 3 8.3
2020-Jan-23 13:16 014 0 gusting 4 7.8
2020-Jan-23 13:11 020 0 gusting 4 7.8
2020-Jan-23 13:08 033 0 gusting 3 7.8
2020-Jan-23 13:03 072 0 gusting 3 7.8